Location: ???????
(55.5883°N, 37.7877°E)
Time: 16:43:31
(UTC+00:00)

Daily predictions for brighter satellites

Satellite Brightness Start Highest point End
(mag) Time Altitude Azimuth Time Altitude Azimuth Time Altitude Azimuth
Cosmos 2344 3.5 16:57:30 10° SW 17:04:50 70° SE 17:12:25 10° NE
ATLAS 3B R/B 4.1 17:02:39 10° SE 17:06:58 17° ESE 17:11:25 10° ENE
Cosmos 2218 Rocket 4.1 17:01:25 10° N 17:07:53 82° ENE 17:14:17 10° SSE
Cosmos 1953 2.2 17:07:19 10° S 17:11:07 69° E 17:14:56 10° NNE
USA 281 3.3 17:07:56 10° SSE 17:14:32 86° WSW 17:21:10 10° NNW
NOSS 2-2 (E) 3.0 17:12:41 10° SSW 17:15:43 46° SE 17:18:53 10° ENE
Cosmos 2098 Rocket 3.9 17:11:11 10° SSE 17:15:44 34° E 17:19:33 10° NNE
Cosmos 2278 Rocket 3.9 17:11:09 10° WSW 17:16:27 39° NW 17:21:47 10° NNE
Cosmos 2263 Rocket 4.3 17:12:47 10° NNW 17:16:40 18° NNE 17:20:31 10° ENE
Cosmos 1821 Rocket 4.1 17:10:39 10° N 17:16:51 62° ENE 17:22:55 10° SSE
CZ-4C R/B 4.0 17:18:32 10° NE 17:21:35 27° E 17:24:31 10° SSE
Terra 3.0 17:17:34 10° ESE 17:21:35 28° ENE 17:25:36 10° N
Genesis I 4.2 17:23:06 10° NW 17:26:27 34° NNE 17:29:49 10° E
Okean-O 2.6 17:22:39 10° SSE 17:27:02 70° ENE 17:31:27 10° NNW
NOSS 2-2 (D) 3.0 17:26:49 10° SSW 17:29:51 44° SE 17:32:57 10° ENE
Ariane Rocket 3.9 17:26:27 10° ESE 17:30:56 33° ENE 17:35:26 10° N
NOSS 2-3 (E) 3.3 17:28:04 10° SW 17:31:46 61° SE 17:36:07 10° NE
Cosmos 1486 Rocket 4.1 17:27:44 10° NNW 17:32:58 64° ENE 17:38:02 11° SE
SPOT 3 Rocket 4.5 17:30:51 11° ESE 17:35:22 34° ENE 17:40:01 10° N
BREEZE-M R/B 3.2 17:35:27 10° WSW 17:37:36 23° S 17:38:57 15° SE
Cosmos 1825 3.9 17:35:00 10° NNW 17:38:04 30° W 17:41:07 10° SSW
Cosmos 1025 Rocket 4.3 17:38:32 10° NNW 17:42:40 43° W 17:46:47 10° SSW
Cosmos 2084 Rocket 4.1 17:39:20 10° WSW 17:43:27 56° NNW 17:47:24 10° NE
USA 245 4.3 17:39:19 10° SE 17:44:32 49° ENE 17:49:00 10° N
Cosmos 1656 Rocket 3.7 17:39:23 10° SW 17:44:56 86° NW 17:50:27 10° NNE
USA 267 3.3 17:39:11 10° ENE 17:45:47 85° SSE 17:52:22 10° WSW
USA 129 2.3 17:45:13 10° NNE 17:47:52 73° WNW 17:50:29 10° SSW
Cosmos 1452 Rocket 4.4 17:44:11 10° SW 17:49:21 55° NW 17:54:34 10° NNE
Okean O Rocket 2.7 17:46:02 10° S 17:50:11 43° W 17:54:24 10° NNW
Cosmos 1302 Rocket 4.0 17:45:38 10° SSW 17:50:53 80° ESE 17:56:10 10° NNE
Cosmos 1975 Rocket 3.7 17:49:12 10° NNW 17:53:29 57° W 17:57:43 10° S
Resurs 01 Rocket 2.9 17:51:08 10° SSW 17:55:17 40° W 17:59:29 10° NNW
Iridium 4 Rocket 4.4 17:51:43 14° SE 17:55:54 35° E 18:01:05 10° NNE
Cosmos 2227 Rocket 3.4 17:52:21 10° NNW 17:57:29 33° NE 18:02:08 12° E
Meteor 1-11 4.5 17:52:22 10° NNW 17:58:00 74° W 18:03:40 10° S
CZ-4C R/B 3.3 17:52:10 10° NW 17:58:15 53° NNE 18:05:51 10° E
ATLAS CENTAUR R/B 2.9 18:00:11 10° NW 18:03:16 25° NNE 18:06:25 10° ENE
Cosmos 1934 Rocket 4.1 17:57:29 10° N 18:03:34 61° ENE 18:08:47 15° SSE
ATLAS 5 CENTAUR R/B 2.2 18:01:59 14° SSE 18:04:06 22° ESE 18:07:07 10° ENE
Landsat 4 3.4 18:03:43 16° SSE 18:06:28 86° ENE 18:10:00 10° NNW
NOSS 3-1 (A) 4.0 18:06:25 10° S 18:10:35 26° ESE 18:15:23 10° ENE
Cosmos 1346 Rocket 4.0 18:07:54 10° SW 18:11:34 42° WNW 18:15:14 10° N
SPOT 5 3.2 18:09:00 10° SSE 18:14:20 79° WSW 18:19:39 10° NNW
Cosmos 2181 Rocket 4.5 18:10:16 10° SSW 18:16:24 64° WNW 18:22:41 10° N
NOSS 2-2 (C) 2.8 18:13:44 10° SW 18:16:52 79° NW 18:20:15 10° NE
Cosmos 1943 Rocket 4.3 18:14:10 10° W 18:19:00 29° NNW 18:23:53 10° NNE
Cosmos 1536 Rocket 3.5 18:14:54 10° N 18:19:19 82° ENE 18:22:32 18° SSE
ERS-1 Rocket 2.9 18:16:37 16° SSE 18:20:37 85° ENE 18:25:41 10° NNW
COSMOS 2455 3.2 18:15:00 10° NW 18:20:59 58° NE 18:25:16 19° ESE
CENTAUR R/B 3.6 18:16:44 10° WNW 18:23:57 55° NNE 18:32:33 10° E
Cosmos 2151 Rocket 3.6 18:22:34 16° S 18:25:58 58° E 18:30:19 10° NNE
Cosmos 1777 Rocket 4.0 18:21:09 10° NNW 18:26:28 85° ENE 18:29:54 22° SSE
Cosmos 1461 4.0 18:23:01 10° WSW 18:26:56 44° NNW 18:30:45 10° NE
Cosmos 2297 Rocket 2.4 18:21:23 10° NNW 18:27:02 64° NE 18:30:35 23° SE
ARGOS Delta rocket 4.4 18:24:39 22° SE 18:27:58 54° ENE 18:33:18 10° N
SL-27 R/B 3.8 18:26:35 10° NW 18:29:07 26° WSW 18:30:58 14° SSW
NOSS 3-1 (C) 3.2 18:27:30 10° SSW 18:32:31 60° SE 18:38:39 10° NE
Cosmos 2219 4.3 18:28:21 10° NNW 18:33:33 34° NE 18:37:28 16° E
SL-4 R/B 2.0 18:30:47 10° WSW 18:34:12 43° S 18:34:56 36° SE
Cosmos 2369 Rocket 3.0 18:29:41 10° SW 18:35:17 56° NW 18:40:52 10° NNE
Cosmos 1354 Rocket 4.0 18:30:54 10° NNW 18:36:16 88° WSW 18:39:31 24° SSE
Cosmos 1503 Rocket 4.2 18:31:19 10° NNW 18:36:41 72° WSW 18:40:15 22° SSE
H-2A R/B 4.1 18:39:07 16° E 18:40:18 18° NE 18:42:52 10° NNE
Cosmos 371 Rocket 3.5 18:37:59 10° NNW 18:42:46 67° WSW 18:45:33 24° S
SJ 16-02 4.0 18:42:13 10° WNW 18:44:15 13° W 18:46:16 10° WSW
Cosmos 1992 Rocket 4.1 18:40:45 10° SSW 18:45:58 77° WNW 18:51:14 10° NNE
Okean 2 Rocket 3.0 18:45:50 17° S 18:49:20 87° E 18:53:53 10° NNE
Spot 2 Rocket 3.6 18:46:51 22° S 18:50:12 73° WSW 18:55:17 10° NNW
NOSS 2-3 (C) 4.3 18:46:40 10° WSW 18:50:29 51° NNW 18:55:12 10° NE
ARIANE 5 R/B 3.8 18:49:45 24° E 18:51:25 31° ENE 18:55:22 10° N
Cosmos 1892 Rocket 3.7 18:48:46 10° N 18:53:04 57° ENE 18:54:34 36° SE
NOSS 2-3 (D) 4.4 18:51:51 10° WSW 18:55:39 51° NNW 19:00:20 10° NE
ATLAS 3B R/B 2.9 18:49:12 10° SSW 18:56:12 58° SE 19:03:39 10° NE
Terra 2.3 18:55:55 21° S 18:58:57 56° W 19:03:38 10° NNW
Cosmos 304 Rocket 4.1 18:55:26 10° NNW 19:00:09 59° WSW 19:02:28 28° S
Nadezhda 3 Rocket 4.4 18:54:39 10° SSW 19:00:44 63° WNW 19:06:55 10° N
Cosmos 2263 Rocket 3.3 18:57:02 10° NNW 19:02:15 36° NE 19:05:39 19° E
Genesis I 3.3 18:59:32 10° NW 19:03:06 56° SW 19:03:48 46° S
Iridium 2 4.4 19:01:16 10° NNW 19:04:02 35° W 19:05:06 25° SW
Sich 1 Rocket 3.8 19:00:53 16° SSW 19:04:24 70° WNW 19:08:52 10° N
Cosmos 1656 4.1 19:02:53 32° SSE 19:04:36 41° ESE 19:09:44 10° NE
NOSS 8 (E) 4.1 19:02:03 10° NW 19:05:01 77° SW 19:05:21 66° SSE
MOS 1 Rocket 3.0 19:06:13 38° S 19:07:51 84° WSW 19:12:13 10° NNW
Cosmos 1605 Rocket 4.1 19:01:52 10° NNW 19:08:20 84° W 19:12:10 26° S
Ariane Rocket 3.6 19:06:32 21° SSW 19:09:43 51° W 19:14:40 10° NNW
NOSS 8 (H) 4.1 19:07:09 10° NW 19:10:06 90° S 19:10:22 74° SE
Cosmos 2173 Rocket 4.5 19:05:56 10° N 19:12:07 49° ENE 19:14:55 30° SE
Cosmos 332 Rocket 3.7 19:08:34 10° NNW 19:13:26 86° WSW 19:15:12 40° SSE
Cosmos 1437 Rocket 2.7 19:09:58 10° NNW 19:13:50 74° ENE 19:14:35 55° SE
SPOT 3 Rocket 4.1 19:11:28 23° S 19:14:36 53° W 19:19:43 10° NNW
ALOS 2 4.4 19:14:43 18° E 19:16:07 21° NE 19:19:22 10° N
Cosmos 2344 4.2 19:12:26 10° W 19:19:33 55° NNW 19:27:41 10° ENE
Cosmos 1763 Rocket 4.0 19:25:21 37° ESE 19:25:41 38° ESE 19:30:24 10° NE
Okean 1 Rocket 3.3 19:24:18 27° SSW 19:26:41 68° WNW 19:31:10 10° N
Cosmos 405 Rocket 2.8 19:28:40 55° E 19:28:40 55° E 19:32:13 10° NNE
USA 267 3.3 19:22:16 10° E 19:28:51 80° N 19:35:25 10° W
CZ-2C R/B 4.5 19:24:38 10° NNE 19:29:01 36° E 19:29:16 35° ESE
Cosmos 990 Rocket 3.9 19:24:08 10° NNW 19:29:21 78° WSW 19:31:04 43° SSE
Cosmos 1455 Rocket 3.0 19:30:52 54° SSE 19:31:39 67° E 19:36:02 10° NNE
Aureole 1 Rocket 2.4 19:29:08 10° NNW 19:31:53 66° NNW 19:31:53 66° NNW
NOSS 3-2 (A) 4.2 19:27:25 10° NW 19:34:09 65° NNE 19:39:59 20° ESE
Iridium 4 Rocket 4.4 19:31:21 16° SSW 19:35:36 51° WNW 19:41:15 10° N
MetOp-A 4.2 19:39:03 34° SW 19:39:57 40° W 19:43:35 10° NNW
Cosmos 2016 Rocket 4.4 19:34:12 10° N 19:40:07 48° ENE 19:42:14 35° ESE
Cosmos 2100 Rocket 4.0 19:34:46 10° N 19:41:12 74° ENE 19:43:38 40° SSE
ATLAS CENTAUR R/B 1.1 19:37:52 10° NW 19:41:36 70° NE 19:41:52 66° ENE
Cosmos 2227 Rocket 2.2 19:36:23 10° NW 19:42:06 78° WSW 19:43:56 44° SSE
Cosmos 2360 4.5 19:42:17 43° SE 19:42:59 45° ESE 19:48:24 10° NE
Cosmos 1727 Rocket 4.0 19:40:46 38° SSE 19:43:13 68° E 19:49:26 10° NNE
Landsat 5 3.9 19:42:24 10° N 19:46:43 62° WNW 19:48:24 34° SW
CZ-4C R/B 2.8 19:40:32 10° NW 19:47:15 78° SW 19:50:57 36° SE
ATLAS 5 CENTAUR R/B 1.4 19:44:01 10° WSW 19:47:34 67° NNW 19:51:42 10° NE
Cosmos 1844 Rocket 4.4 19:43:55 10° NNW 19:48:38 26° NNE 19:53:11 11° E
Cosmos 468 Rocket 4.4 19:49:19 41° ESE 19:49:23 41° ESE 19:54:17 10° NE
Cosmos 44 4.0 19:50:43 40° ESE 19:50:43 40° ESE 19:55:13 10° NE
Cosmos 1980 Rocket 3.6 19:52:26 22° E 19:52:26 22° E 19:56:05 10° NE
H-2A R/B 4.4 19:50:30 10° ENE 19:51:05 11° ENE 19:51:05 11° ENE
Cosmos 1869 4.4 19:52:49 30° ENE 19:52:49 30° ENE 19:55:30 10° NNE
Cosmos 2228 4.0 19:55:26 33° ENE 19:55:26 33° ENE 19:58:48 10° NNE
USA 81 4.0 19:54:56 47° S 19:56:30 89° ESE 20:01:49 10° N
Cosmos 372 Rocket 3.9 19:53:01 10° NNW 19:58:17 81° ENE 19:59:30 54° SE
Cosmos 2058 2.9 19:54:22 10° NNW 19:58:23 63° W 19:58:42 61° SW
Cosmos 540 Rocket 3.6 20:00:18 51° ESE 20:00:32 51° ESE 20:05:30 10° NE
NOSS 3-1 (A) 3.2 19:55:18 10° SW 20:00:34 87° NW 20:07:07 10° NE
Cosmos 2123 Rocket 4.4 20:00:05 40° SE 20:01:37 48° E 20:07:40 10° NNE
Cosmos 1697 Rocket 2.9 20:02:11 46° SE 20:02:35 47° ESE 20:08:00 10° NE
Cosmos 1000 Rocket 4.4 20:01:52 46° SSE 20:03:39 67° E 20:09:44 10° NNE
Meteor 2-15 4.4 19:59:25 10° NNW 20:05:37 82° ENE 20:07:30 48° SSE
COSMOS 2455 3.4 20:01:08 10° NW 20:06:52 45° WSW 20:08:24 37° SSW
Cosmos 1544 4.2 20:05:33 10° N 20:07:19 31° N 20:07:19 31° N
USA 229 DEB 3.6 20:06:44 43° S 20:08:35 58° SE 20:15:22 10° NE
USA 229 3.6 20:06:53 43° S 20:08:41 57° SE 20:15:28 10° NE
Cosmos 1626 Rocket 3.4 20:05:08 10° NNW 20:09:32 78° W 20:09:54 71° SSW
Cosmos 2297 Rocket 3.3 20:05:49 10° NW 20:10:47 32° WSW 20:12:24 27° SW
SL-4 R/B 4.2 20:09:27 10° W 20:09:47 12° W 20:09:47 12° W
Cosmos 2061 Rocket 4.2 20:06:57 10° N 20:13:22 62° ENE 20:15:22 43° SE
Cosmos 1937 Rocket 3.4 20:08:32 10° NNW 20:13:54 88° WSW 20:14:55 60° SSE
H-2A R/B 2.4 20:15:10 65° WNW 20:15:10 65° WNW 20:18:42 10° NNW
CENTAUR R/B 3.1 20:07:31 10° NW 20:15:24 85° SW 20:19:49 35° SE
Meteor 2-3 Rocket 3.6 20:10:35 10° NNW 20:16:17 90° WSW 20:17:38 55° SSE
Cosmos 2219 3.2 20:12:31 10° NW 20:18:12 73° WSW 20:19:22 55° S
Cosmos 1898 Rocket 3.6 20:13:08 10° NNW 20:18:23 65° WSW 20:19:15 55° SSW
Okean 1-7 Rocket 3.4 20:15:13 10° NNW 20:19:46 89° E 20:20:03 79° SSE
NOSS 3-1 (C) 4.1 20:18:04 10° W 20:23:27 54° NNW 20:30:09 10° NE
SL-08 R/B 4.5 20:17:40 10° N 20:24:07 78° ENE 20:25:55 50° SSE
Cosmos 1725 Rocket 3.9 20:19:52 10° NNW 20:26:06 88° E 20:27:47 52° SSE
ARIANE 5 R/B 3.2 20:27:13 45° WSW 20:27:40 47° W 20:32:03 10° NNW
Cosmos 1544 Rocket 3.4 20:31:55 81° W 20:32:00 82° WNW 20:36:22 10° N
Cosmos 2233 Rocket 4.0 20:26:47 10° N 20:32:57 72° ENE 20:34:32 51° SE
Cosmos 292 Rocket 4.1 20:30:59 10° NW 20:35:35 51° WSW 20:35:46 51° WSW
Cosmos 1666 3.8 20:33:24 10° N 20:36:01 35° NE 20:36:01 35° NE
Cosmos 1862 3.5 20:33:08 10° N 20:36:36 64° NNE 20:36:36 64° NNE
Cosmos 1606 3.3 20:38:29 51° NNE 20:38:29 51° NNE 20:41:18 10° NNE
Cosmos 1459 Rocket 4.3 20:33:25 10° NNW 20:39:19 55° W 20:41:05 41° SW
Cosmos 2082 3.6 20:34:38 10° NW 20:40:19 74° WSW 20:41:12 61° S
Cosmos 2263 Rocket 2.1 20:40:59 10° NW 20:46:35 67° WSW 20:47:19 60° SSW
NOSS 3-2 (C) 4.0 20:39:40 10° NW 20:46:36 76° NE 20:51:57 24° ESE
ATLAS 3B R/B 3.3 20:39:46 10° WSW 20:47:04 64° NNW 20:54:47 10° NE
Cosmos 1656 4.3 20:44:12 18° WSW 20:48:10 51° NW 20:53:33 10° NNE
Cosmos 1758 Rocket 4.1 20:45:52 10° NNW 20:50:09 49° W 20:50:12 49° W
Cosmos 1602 Rocket 3.9 20:46:18 10° NNW 20:50:27 52° W 20:50:27 52° W
ALOS 2 2.6 20:52:06 74° W 20:52:06 74° W 20:56:26 10° NNW
SL-19 R/B 4.2 20:46:51 10° NNE 20:52:27 74° ESE 20:53:25 60° SSE
Cosmos 2322 Rocket 4.3 20:55:57 12° E 20:55:58 12° E 20:58:09 10° ENE
Cosmos 1500 4.0 20:54:40 10° N 20:57:11 44° N 20:57:11 44° N
Spot 4 4.2 21:00:01 50° WSW 21:00:17 50° W 21:04:59 10° NNW
Lacrosse 4 Rocket 3.8 21:03:10 12° ENE 21:03:10 12° ENE 21:03:47 10° ENE
Cosmos 1763 Rocket 4.3 21:05:16 30° WSW 21:07:23 46° NW 21:12:22 10° NNE
Cosmos 1844 4.3 21:01:57 10° NNW 21:07:35 52° NE 21:10:04 31° ESE
Meteor 1-27 4.0 21:09:03 66° S 21:09:51 83° ESE 21:15:27 10° NNE
Uosat 12 SS-18 rocket 4.1 21:05:39 10° NW 21:10:14 82° NW 21:10:14 82° NW
Cosmos 1825 Rocket 3.7 21:06:56 10° NNW 21:11:00 64° WNW 21:11:00 64° WNW
SL-16 R/B 3.6 21:11:38 23° ESE 21:11:38 23° ESE 21:15:56 10° NE
USA 267 3.1 21:08:15 29° ESE 21:11:56 80° SSW 21:18:32 10° WNW
Cosmos 1606 Rocket 3.6 21:12:47 69° NE 21:12:47 69° NE 21:16:44 10° NNE
Cosmos 2058 Rocket 4.0 21:17:39 37° ENE 21:17:39 37° ENE 21:21:17 10° NNE
ATLAS CENTAUR R/B 3.6 21:16:06 10° WNW 21:16:59 15° W 21:16:59 15° W
NOSS 3-2 (A) 4.1 21:18:12 10° NW 21:25:15 59° SW 21:27:19 46° S
Cosmos 2227 Rocket 4.0 21:21:35 10° WNW 21:25:17 18° W 21:25:45 18° WSW
Cosmos 1271 Rocket 3.5 21:24:28 10° NNW 21:27:20 47° NW 21:27:20 47° NW
H-2A R/B 2.2 21:24:16 10° NNE 21:27:56 65° NE 21:27:56 65° NE
GEOS 3 Rocket 3.8 21:27:49 35° ESE 21:30:07 70° NE 21:35:24 10° NW
Cosmos 2278 4.3 21:30:50 40° ESE 21:30:58 40° ESE 21:36:13 10° NE
Cosmos 44 3.9 21:29:00 32° WSW 21:31:23 61° NW 21:36:36 10° NE
ATLAS 5 CENTAUR R/B 3.3 21:28:41 10° WNW 21:32:08 30° N 21:36:12 10° NE
Cosmos 2228 4.1 21:32:00 34° WNW 21:32:17 34° WNW 21:36:10 10° N
Cosmos 1844 Rocket 2.7 21:27:47 10° NNW 21:33:26 76° NE 21:34:48 52° SE
Geosat 3.8 21:33:18 74° SSW 21:33:32 76° WSW 21:38:34 10° NW
Cosmos 1076 Rocket 3.6 21:30:03 10° NNW 21:34:03 75° N 21:34:03 75° N
Cosmos 1125 Rocket 3.5 21:29:34 10° NNW 21:34:50 74° ENE 21:35:40 61° ESE
Cosmos 1980 Rocket 2.1 21:34:09 62° SW 21:35:10 86° WNW 21:40:52 10° NE
CZ-4C R/B 3.9 21:29:18 10° WNW 21:35:19 29° WSW 21:36:02 29° SW
Cosmos 2344 4.3 21:27:57 10° WNW 21:35:21 56° NNE 21:44:40 10° E
PSLV R/B 3.6 21:31:48 10° NNE 21:36:24 84° E 21:36:24 84° E
Cosmos 2151 3.4 21:35:52 10° NNW 21:39:32 55° WNW 21:39:32 55° WNW
Cosmos 1238 Rocket 3.9 21:44:01 34° NNE 21:44:01 34° NNE 21:46:08 10° NNE
Cosmos 841 Rocket 3.8 21:43:46 50° WSW 21:44:47 60° WNW 21:49:54 10° NNE
USA 238 DEB 3.8 21:38:57 10° NW 21:46:07 88° NE 21:51:10 24° SE
USA 238 3.8 21:39:04 10° NW 21:46:14 88° NE 21:51:23 23° SE
Cosmos 1697 Rocket 3.5 21:43:51 27° WSW 21:46:37 47° NW 21:52:07 10° NNE
Helios 1A Rocket 3.2 21:49:34 61° NE 21:49:34 61° NE 21:53:10 10° N
Cosmos 2227 4.3 21:45:45 10° NW 21:51:21 57° WSW 21:51:39 56° SW
Cosmos 1809 Rocket 4.5 21:50:40 55° SSE 21:52:01 73° E 21:58:13 10° NNE
NOSS 3-1 (A) 4.5 21:46:37 10° W 21:52:07 46° N 21:58:54 10° ENE
Intercosmos 24 4.3 21:52:31 72° SW 21:52:59 80° WNW 21:57:12 10° N
Cosmos 1726 Rocket 3.8 21:55:10 59° WNW 21:55:10 59° WNW 21:59:21 10° N
Cosmos 2369 3.7 21:54:29 57° SW 21:55:40 79° NW 22:01:22 10° NNE
Cosmos 1953 Rocket 4.5 21:53:09 10° NNW 21:56:46 38° WNW 21:56:46 38° WNW
USA 229 DEB 4.1 21:54:04 14° WSW 21:59:37 60° NNW 22:06:45 10° NE
USA 229 4.1 21:54:12 15° WSW 21:59:42 61° NNW 22:06:51 10° NE
Cosmos-2242 3.7 22:01:13 42° E 22:01:13 42° E 22:05:04 10° NNE
Cosmos 2150 Rocket 4.0 21:55:56 10° NNW 22:01:06 73° ENE 22:02:11 55° SE
Cosmos 2298 Rocket 4.1 21:56:24 10° NNW 22:01:45 75° ENE 22:02:58 53° SE
Cosmos 2346 Rocket 4.4 22:03:20 55° SSW 22:04:48 80° WNW 22:11:05 10° N
CENTAUR R/B 3.9 21:58:27 10° WNW 22:05:41 35° WSW 22:06:56 34° SW
Meteor 1-25 Rocket 4.1 22:02:35 10° NNW 22:08:18 88° ENE 22:09:25 60° SSE
Meteor 1-20 Rocket 4.1 22:03:45 10° NNW 22:09:21 80° WSW 22:10:17 63° S
Cosmos 1867 4.4 22:05:50 10° NW 22:11:11 50° NNE 22:16:31 10° ESE
CZ-2C R/B 4.3 22:08:25 11° ESE 22:12:48 31° ENE 22:17:26 10° N
USA 215 3.4 22:11:22 10° ENE 22:17:42 49° SE 22:18:41 46° S
Meteor 2-14 Rocket 4.4 22:18:19 54° SSW 22:19:49 84° WNW 22:26:01 10° NNE
Cosmos 1464 Rocket 4.1 22:14:08 10° NNW 22:20:24 65° W 22:21:54 50° SSW
Resurs 1-4 Rocket 3.9 22:17:32 10° NE 22:21:33 21° E 22:23:46 17° ESE
Aureole 3 Rocket 3.2 22:17:56 10° N 22:23:30 71° ENE 22:24:02 63° ESE
Cosmos 2333 Rocket 3.2 22:22:54 31° SE 22:23:55 33° ESE 22:28:55 10° NE
Lacrosse 5 3.5 22:26:26 22° ESE 22:26:26 22° ESE 22:29:35 10° E
Cosmos 2221 4.0 22:27:05 24° ESE 22:27:50 25° E 22:31:21 10° NNE
Cosmos 2360 Rocket 2.8 22:28:10 37° SE 22:29:10 41° ESE 22:34:26 10° NE
Cosmos 2263 Rocket 4.1 22:26:29 10° WNW 22:28:59 15° W 22:28:59 15° W
Cosmos 2278 Rocket 3.7 22:28:59 10° NNW 22:34:14 36° NE 22:39:27 10° ESE
Cosmos 1814 Rocket 4.2 22:34:20 48° WSW 22:35:28 60° WNW 22:40:36 10° NNE
NOSS 3-2 (C) 4.3 22:30:35 10° NW 22:37:29 46° SW 22:39:19 40° SSW
Cosmos 1570 Rocket 3.9 22:36:43 62° S 22:37:33 78° ESE 22:42:48 10° NNE
USA 32 4.0 22:37:08 58° SSE 22:38:11 80° E 22:43:27 10° N
Cosmos 2322 Rocket 2.4 22:37:45 49° SSE 22:38:51 58° ESE 22:44:22 10° NE
Lacrosse 4 Rocket 1.3 22:39:06 79° N 22:39:06 79° N 22:42:58 10° NE
Cosmos 2034 Rocket 4.0 22:32:54 10° NNW 22:39:03 67° W 22:40:37 49° SSW
ATLAS 3B R/B 4.0 22:31:50 10° WNW 22:39:03 46° N 22:46:33 10° ENE
Cosmos 2084 Rocket 4.2 22:38:38 10° NW 22:41:08 37° WNW 22:41:08 37° WNW
IDEFIX/ARIANE 42P 3.7 22:38:23 10° NNE 22:43:06 34° E 22:44:58 26° SE
Cosmos 1743 3.7 22:41:10 10° N 22:44:40 38° ENE 22:45:18 35° E
Cosmos 1812 3.7 22:45:20 36° NW 22:45:20 36° NW 22:48:16 10° N
BlueWalker 3 3.9 22:49:11 20° ESE 22:49:11 20° ESE 22:50:27 10° ESE
NOSS 2-2 (E) 4.2 22:43:26 10° NW 22:47:10 55° NNE 22:52:12 10° ESE
Cosmos 2219 Rocket 3.3 22:45:40 26° SE 22:47:16 31° ESE 22:52:07 10° NE
Cosmos 1844 4.1 22:46:17 10° NW 22:51:41 43° WSW 22:51:55 43° WSW
Cosmos 1933 3.2 22:52:13 80° E 22:52:13 80° E 22:56:11 10° NNE
SL-16 R/B 2.1 22:53:27 50° SW 22:55:02 84° NW 23:00:46 10° NNE
Cosmos 2058 Rocket 4.1 22:54:51 31° WNW 22:55:15 32° WNW 22:59:11 10° N
USA 267 3.6 22:55:32 40° SW 22:55:32 40° SW 23:01:40 10° WNW
NOSS 2-1 (C) 3.7 22:58:31 45° NE 22:58:31 45° NE 23:00:47 10° NE
NOSS 2-1 (E) 3.7 22:58:37 42° NE 22:58:37 42° NE 23:00:48 10° NE
Cosmos 1782 2.8 23:00:58 66° WNW 23:00:58 66° WNW 23:04:41 10° N
H-2A R/B 4.0 22:57:09 10° NNE 23:01:08 48° E 23:01:44 44° SE
NOSS 2-2 (D) 4.2 22:57:45 10° NW 23:01:25 53° NNE 23:06:19 10° ESE
H-2A R/B 3.9 23:00:48 10° N 23:03:45 19° NW 23:04:46 18° WNW
Cosmos 1634 Rocket 3.9 22:58:33 10° NNW 23:04:53 78° W 23:07:26 39° S
Cosmos 1812 Rocket 3.5 23:04:37 64° SW 23:05:07 72° WNW 23:09:37 10° N
Timation 2 Rocket 4.4 23:00:28 10° NW 23:06:47 46° WSW 23:08:04 41° SW
GEOS 3 Rocket 4.2 23:08:51 38° WSW 23:08:51 38° WSW 23:13:22 10° WNW
Meteor 1-26 Rocket 4.4 23:06:37 40° S 23:08:42 70° E 23:14:31 10° NNE
ADEOS II 3.5 23:04:39 10° NNE 23:09:18 31° E 23:12:19 18° SE
Meteor 1-14 Rocket 4.4 23:04:50 10° NNW 23:10:24 71° ENE 23:13:40 25° SSE
Meteor 2-16 Rocket 4.5 23:08:31 42° SW 23:10:37 69° WNW 23:16:44 10° N
SL-16 R/B 3.0 23:06:58 10° SE 23:13:01 59° ENE 23:19:09 10° NNW
Meteor 1-28 Rocket 4.4 23:11:21 24° ESE 23:13:02 39° ENE 23:16:29 10° N
Cosmos 2278 4.2 23:12:42 33° WSW 23:15:00 54° NW 23:20:36 10° NNE
Cosmos 2142 Rocket 4.5 23:10:16 10° N 23:16:26 82° ENE 23:20:05 26° SSE
Cosmos 1844 Rocket 3.8 23:12:16 10° NW 23:16:26 26° W 23:16:26 26° W
ATLAS 5 CENTAUR R/B 3.3 23:13:06 10° NW 23:17:01 36° NNE 23:21:44 10° E
Cosmos 1980 Rocket 3.8 23:15:53 14° W 23:19:56 29° NNW 23:24:51 10° NNE
CZ-2D R/B 2.7 23:15:16 10° NNE 23:20:28 51° E 23:23:02 28° SSE
Meteor 1-5 Rocket 4.5 23:15:03 10° NNW 23:20:36 53° W 23:22:14 41° SW
Cosmos 1726 3.5 23:17:46 10° N 23:20:40 30° ENE 23:21:59 22° ESE
Cosmos 1461 3.1 23:20:31 10° NW 23:24:24 63° NE 23:28:12 10° ESE
NOSS 2-1 (D) 3.2 23:25:50 52° NNW 23:25:50 52° NNW 23:28:46 10° NE
Cosmos 2084 3.8 23:28:22 38° WNW 23:29:28 51° NNW 23:33:12 10° NE
Cosmos 1515 3.9 23:29:52 48° WNW 23:29:52 48° WNW 23:33:18 10° N
Cosmos 2208 Rocket 4.3 23:28:56 38° WSW 23:30:53 62° WNW 23:36:19 10° NNE
Cosmos 1900 4.4 23:28:29 10° NW 23:33:30 57° SW 23:35:34 33° S
MOZ.5/SAFIR/RUBIN 5/SL-8 4.4 23:33:38 36° WSW 23:33:58 37° W 23:38:23 10° NNW
Cosmos 1943 Rocket 3.1 23:30:08 10° NNW 23:35:39 49° NE 23:41:09 10° ESE
USA 238 DEB 4.4 23:30:11 10° WNW 23:36:37 35° WSW 23:38:30 31° SSW
USA 238 4.4 23:30:17 10° WNW 23:36:44 35° WSW 23:38:43 31° SSW
Cosmos 1408 Rocket 3.9 23:32:53 10° N 23:37:10 61° ENE 23:39:56 21° SSE
Cosmos-2242 4.2 23:37:49 26° W 23:38:33 28° WNW 23:42:13 10° N
Cosmos 1842 Rocket 4.1 23:36:39 30° SSE 23:38:35 54° E 23:42:57 10° NNE
COSMOS 2428 3.6 23:40:42 22° SSE 23:43:53 40° ESE 23:49:10 10° NE
IRIDIUM 104 4.2 23:38:46 10° N 23:44:02 83° W 23:46:42 30° S
Meteor 1-11 Rocket 3.9 23:40:11 10° NNW 23:45:50 70° ENE 23:51:21 10° SSE
NOSS 2-2 (C) 3.6 23:44:45 10° NW 23:48:40 88° NE 23:54:05 10° SE
Cosmos 1378 3.4 23:50:17 42° W 23:50:23 42° WNW 23:53:38 10° N
Cosmos 2237 Rocket 4.1 23:48:13 10° SSE 23:52:28 22° ESE 23:56:45 10° NE
Cosmos 2369 Rocket 4.4 23:47:55 10° NNW 23:52:40 27° NNE 23:57:23 10° E
CZ-2C R/B 2.7 23:49:54 28° S 23:52:47 63° WSW 23:58:08 10° NNW
IRIDIUM 114 4.3 23:47:57 10° N 23:53:11 72° W 23:55:51 29° SSW
Cosmos 1805 Rocket 4.1 23:49:12 10° N 23:53:30 56° ENE 23:57:45 10° SSE
Cosmos 1500 Rocket 3.9 23:49:44 10° N 23:54:12 67° ENE 23:57:59 14° SSE
